Location: Ch�teau-Arnoux
(44.0814°N, 6.0027°E)
Time: 04:13:59
(UTC+00:00)

USA 234 - Visible Passes

Search period start: 28 February 2020 00:00
Search period end: 09 March 2020 00:00
Orbit: 1100 x 1107 km, 123.0° (Epoch: 20 February)

Date Brightness Start Highest point End Pass type
(mag) Time Alt. Az. Time Alt. Az. Time Alt. Az.
28 Feb 4.6 18:11:57 10° NE 18:17:26 29° N 18:22:53 10° WNW visible
28 Feb 4.3 19:58:02 30° NE 19:59:18 33° NNE 20:04:57 10° NW visible
28 Feb 4.9 21:45:22 27° NW 21:45:22 27° NW 21:48:04 10° NW visible
29 Feb 4.6 19:13:22 17° NE 19:17:07 29° N 19:22:32 10° NW visible
29 Feb 4.3 21:00:43 37° N 21:00:43 37° N 21:05:14 10° NW visible
29 Feb 5.8 22:48:03 12° NW 22:48:03 12° NW 22:48:26 10° NW visible
01 Mar 4.6 18:29:31 10° NE 18:34:59 29° N 18:40:27 10° WNW visible
01 Mar 4.3 20:16:03 32° NNE 20:16:51 33° NNE 20:22:31 10° NW visible
01 Mar 5.1 22:03:23 23° NW 22:03:23 23° NW 22:05:38 10° NW visible
02 Mar 4.4 17:46:58 10° NE 17:52:46 35° NNW 17:58:33 10° W visible
02 Mar 4.6 19:31:23 19° NE 19:34:40 29° N 19:40:05 10° NW visible
02 Mar 4.5 21:18:43 34° NNW 21:18:43 34° NNW 21:22:47 10° NW visible
03 Mar 4.6 18:47:04 10° NE 18:52:32 29° N 18:58:00 10° WNW visible
03 Mar 4.3 20:34:03 33° NNE 20:34:24 33° NNE 20:40:04 10° NW visible
03 Mar 5.3 22:21:22 20° NW 22:21:22 20° NW 22:23:12 10° NW visible
04 Mar 4.5 18:04:32 10° NE 18:10:19 35° NNW 18:16:07 10° W visible
04 Mar 4.6 19:49:22 21° NE 19:52:13 29° N 19:57:38 10° NW visible
04 Mar 4.7 21:36:42 31° NNW 21:36:42 31° NNW 21:40:21 10° NW visible
05 Mar 4.6 19:04:41 10° NE 19:10:04 29° N 19:15:32 10° WNW visible
05 Mar 4.4 20:52:01 33° NNE 20:52:01 33° NNE 20:57:38 10° NW visible
05 Mar 5.4 22:39:21 18° NW 22:39:21 18° NW 22:40:45 10° NW visible
06 Mar 4.5 18:22:06 10° NE 18:27:53 35° NNW 18:33:39 10° W visible
06 Mar 4.6 20:07:20 23° NE 20:09:46 29° N 20:15:12 10° NW visible
06 Mar 4.8 21:54:39 29° NNW 21:54:39 29° NNW 21:57:54 10° NW visible
07 Mar 4.7 19:22:37 12° NE 19:27:38 29° N 19:33:06 10° WNW visible
07 Mar 4.5 21:09:57 33° N 21:09:57 33° N 21:15:11 10° NW visible
07 Mar 5.6 22:57:17 15° NW 22:57:17 15° NW 22:58:19 10° NW visible
08 Mar 4.5 18:39:39 10° NE 18:45:26 35° NNW 18:51:13 10° W visible
08 Mar 4.6 20:25:15 24° NNE 20:27:19 29° N 20:32:45 10° NW visible
08 Mar 5.0 22:12:35 26° NNW 22:12:35 26° NNW 22:15:28 10° NW visible
